Total_Precipitation_Accumulation
0.04 0.05 0.04 0.04 0.03 0.02 0.02 0.03 0.02 0.03 0.03 0.04 0.02 0.02 0.03 0.03 0.02 0.03 0.03 0.03 0.01 0.03 0.04 0.01 0.01 0.01 0.00 0.01 0.00 0.00 0.00 0.00 0.00 0.00 0.00 0.00 0.00 0.00 0.00 0.00 0.00 0.00 0.00 0.00 0.00 0.00 0.00 0.00 0.00 0.00 0.00 0.00 0.00 0.00 0.00 0.00 0.00 0.00 0.00 0.00 0.00 0.00 0.00 0.00 0.00 0.00 0.00 0.00 0.00 0.00 0.00 0.00 0.00 0.00 0.00 0.00 0.00 0.00 0.01 0.00 0.01 0.01 0.10 0.08 0.08 0.16 0.08 0.08
0.03 0.04 0.04 0.03 0.02 0.03 0.03 0.02 0.02 0.02 0.02 0.01 0.02 0.02 0.03 0.02 0.02 0.01 0.03 0.02 0.02 0.02 0.01 0.02 0.00 0.01 0.01 0.00 0.00 0.00 0.00 0.00 0.00 0.00 0.00 0.00 0.00 0.00 0.00 0.00 0.00 0.00 0.00 0.00 0.00 0.00 0.00 0.00 0.00 0.00 0.00 0.00 0.00 0.00 0.00 0.00 0.00 0.00 0.00 0.00 0.00 0.00 0.00 0.00 0.00 0.00 0.00 0.00 0.00 0.00 0.00 0.00 0.00 0.00 0.00 0.02 0.00 0.00 0.01 0.02 0.04 0.06 0.08 0.14 0.11 0.07 0.11 0.09
0.03 0.03 0.04 0.03 0.03 0.04 0.04 0.03 0.03 0.03 0.03 0.02 0.01 0.02 0.02 0.02 0.02 0.01 0.01 0.02 0.01 0.01 0.01 0.01 0.01 0.01 0.00 0.00 0.00 0.00 0.00 0.00 0.00 0.00 0.00 0.00 0.00 0.00 0.00 0.00 0.00 0.00 0.00 0.00 0.00 0.00 0.00 0.00 0.00 0.00 0.00 0.00 0.00 0.00 0.00 0.00 0.00 0.00 0.00 0.00 0.00 0.00 0.00 0.00 0.00 0.00 0.00 0.00 0.00 0.00 0.00 0.00 0.00 0.00 0.00 0.03 0.01 0.00 0.00 0.02 0.04 0.13 0.18 0.13 0.12 0.11 0.13 0.14
0.03 0.03 0.03 0.03 0.03 0.04 0.04 0.04 0.03 0.04 0.04 0.03 0.02 0.02 0.02 0.02 0.02 0.02 0.02 0.01 0.00 0.01 0.01 0.01 0.01 0.01 0.00 0.00 0.00 0.00 0.00 0.00 0.00 0.00 0.00 0.00 0.00 0.00 0.00 0.00 0.00 0.00 0.00 0.00 0.00 0.00 0.00 0.00 0.00 0.00 0.00 0.00 0.00 0.00 0.00 0.00 0.00 0.00 0.00 0.00 0.00 0.00 0.00 0.00 0.00 0.00 0.00 0.00 0.00 0.00 0.00 0.00 0.00 0.00 0.00 0.00 0.03 0.02 0.01 0.02 0.10 0.12 0.22 0.14 0.14 0.10 0.12 0.33
0.03 0.03 0.03 0.02 0.02 0.03 0.03 0.03 0.04 0.03 0.04 0.03 0.03 0.02 0.03 0.02 0.02 0.02 0.02 0.01 0.01 0.01 0.01 0.01 0.00 0.00 0.00 0.00 0.00 0.00 0.00 0.00 0.00 0.00 0.00 0.00 0.00 0.00 0.00 0.00 0.00 0.00 0.00 0.00 0.00 0.00 0.00 0.00 0.00 0.00 0.00 0.00 0.00 0.00 0.00 0.00 0.00 0.00 0.00 0.00 0.00 0.00 0.00 0.00 0.00 0.00 0.00 0.00 0.00 0.00 0.00 0.00 0.00 0.00 0.00 0.00 0.02 0.12 0.07 0.07 0.01 0.02 0.34 0.36 0.10 0.10 0.27 0.32
0.02 0.02 0.01 0.01 0.02 0.02 0.03 0.02 0.03 0.02 0.02 0.02 0.03 0.02 0.02 0.03 0.02 0.02 0.02 0.02 0.02 0.02 0.01 0.01 0.00 0.00 0.00 0.00 0.00 0.00 0.00 0.00 0.00 0.00 0.00 0.00 0.00 0.00 0.00 0.00 0.00 0.00 0.00 0.00 0.00 0.00 0.00 0.00 0.00 0.00 0.00 0.00 0.00 0.00 0.00 0.00 0.00 0.00 0.00 0.00 0.00 0.00 0.00 0.00 0.00 0.00 0.00 0.00 0.00 0.00 0.00 0.00 0.00 0.00 0.00 0.00 0.00 0.04 0.02 0.06 0.05 0.01 0.07 0.28 0.10 0.31 0.39 0.71
0.01 0.01 0.01 0.01 0.02 0.03 0.02 0.03 0.02 0.03 0.02 0.02 0.01 0.02 0.02 0.03 0.03 0.02 0.02 0.01 0.01 0.01 0.00 0.01 0.00 0.00 0.00 0.00 0.00 0.00 0.00 0.00 0.00 0.00 0.00 0.00 0.00 0.00 0.00 0.00 0.00 0.00 0.00 0.00 0.00 0.00 0.00 0.00 0.00 0.00 0.00 0.00 0.00 0.00 0.00 0.00 0.00 0.00 0.00 0.00 0.00 0.00 0.00 0.00 0.00 0.00 0.00 0.00 0.00 0.00 0.00 0.00 0.00 0.00 0.00 0.00 0.00 0.00 0.03 0.05 0.02 0.07 0.09 0.14 0.11 0.26 0.30 0.42
0.01 0.01 0.01 0.02 0.02 0.02 0.02 0.02 0.02 0.01 0.02 0.02 0.02 0.02 0.01 0.01 0.03 0.02 0.02 0.02 0.01 0.01 0.01 0.01 0.00 0.00 0.00 0.00 0.00 0.00 0.00 0.00 0.00 0.00 0.00 0.00 0.00 0.00 0.00 0.00 0.00 0.00 0.00 0.00 0.00 0.00 0.00 0.00 0.00 0.00 0.00 0.00 0.00 0.00 0.00 0.00 0.00 0.00 0.00 0.00 0.00 0.00 0.00 0.00 0.00 0.00 0.00 0.00 0.00 0.00 0.00 0.00 0.00 0.00 0.00 0.00 0.00 0.00 0.02 0.02 0.00 0.02 0.04 0.12 0.07 0.25 0.39 0.59
0.01 0.01 0.01 0.02 0.01 0.01 0.01 0.01 0.01 0.01 0.01 0.01 0.01 0.01 0.02 0.02 0.02 0.02 0.02 0.02 0.02 0.02 0.01 0.01 0.00 0.00 0.00 0.00 0.00 0.00 0.00 0.00 0.00 0.00 0.00 0.00 0.00 0.00 0.00 0.00 0.00 0.00 0.00 0.00 0.00 0.00 0.00 0.00 0.00 0.00 0.00 0.00 0.00 0.00 0.00 0.00 0.00 0.00 0.00 0.00 0.00 0.00 0.00 0.00 0.00 0.00 0.00 0.00 0.00 0.00 0.00 0.00 0.00 0.00 0.00 0.00 0.00 0.00 0.00 0.00 0.02 0.04 0.05 0.15 0.12 0.18 0.27 0.46
0.01 0.01 0.01 0.01 0.01 0.00 0.00 0.00 0.01 0.01 0.01 0.01 0.01 0.01 0.01 0.02 0.02 0.02 0.01 0.01 0.02 0.02 0.01 0.01 0.00 0.00 0.00 0.00 0.00 0.00 0.00 0.00 0.00 0.00 0.00 0.00 0.00 0.00 0.00 0.00 0.00 0.00 0.00 0.00 0.00 0.00 0.00 0.00 0.00 0.00 0.00 0.00 0.00 0.00 0.00 0.00 0.00 0.00 0.00 0.00 0.00 0.00 0.00 0.00 0.00 0.00 0.00 0.00 0.00 0.00 0.00 0.00 0.00 0.00 0.00 0.00 0.00 0.00 0.00 0.00 0.05 0.03 0.07 0.08 0.13 0.27 0.41 0.36
0.01 0.01 0.01 0.00 0.00 0.00 0.00 0.01 0.01 0.01 0.01 0.01 0.02 0.02 0.02 0.02 0.02 0.01 0.02 0.01 0.01 0.01 0.01 0.00 0.00 0.00 0.00 0.00 0.00 0.00 0.00 0.00 0.00 0.00 0.00 0.00 0.00 0.00 0.00 0.00 0.00 0.00 0.00 0.00 0.00 0.00 0.00 0.00 0.00 0.00 0.00 0.00 0.00 0.00 0.00 0.00 0.00 0.00 0.00 0.00 0.00 0.00 0.00 0.00 0.00 0.00 0.00 0.00 0.00 0.00 0.00 0.00 0.00 0.00 0.00 0.00 0.00 0.00 0.00 0.01 0.02 0.03 0.04 0.12 0.56 0.68 0.48 0.51
0.01 0.01 0.00 0.00 0.01 0.01 0.01 0.01 0.01 0.01 0.02 0.02 0.02 0.03 0.02 0.02 0.01 0.01 0.01 0.02 0.01 0.01 0.00 0.00 0.01 0.00 0.00 0.00 0.00 0.00 0.00 0.00 0.00 0.00 0.00 0.00 0.00 0.00 0.00 0.00 0.00 0.00 0.00 0.00 0.00 0.00 0.00 0.00 0.00 0.00 0.00 0.00 0.00 0.00 0.00 0.00 0.00 0.00 0.00 0.00 0.00 0.00 0.00 0.00 0.00 0.00 0.00 0.00 0.00 0.00 0.00 0.00 0.00 0.00 0.00 0.00 0.00 0.00 0.00 0.04 0.02 0.02 0.03 0.20 0.49 0.41 0.35 0.38
0.00 0.01 0.00 0.01 0.01 0.01 0.01 0.01 0.01 0.01 0.01 0.02 0.02 0.02 0.02 0.02 0.01 0.01 0.01 0.00 0.00 0.00 0.00 0.00 0.00 0.00 0.00 0.00 0.00 0.00 0.00 0.00 0.00 0.00 0.00 0.00 0.00 0.00 0.00 0.00 0.00 0.00 0.00 0.00 0.00 0.00 0.00 0.00 0.00 0.00 0.00 0.00 0.00 0.00 0.00 0.00 0.00 0.00 0.00 0.00 0.00 0.00 0.00 0.00 0.00 0.00 0.00 0.00 0.00 0.00 0.00 0.00 0.00 0.00 0.00 0.00 0.01 0.01 0.01 0.02 0.03 0.02 0.06 0.41 0.27 0.19 0.22 0.33
0.01 0.01 0.01 0.01 0.00 0.00 0.00 0.01 0.01 0.01 0.01 0.01 0.02 0.01 0.01 0.01 0.02 0.01 0.01 0.01 0.01 0.02 0.01 0.02 0.01 0.00 0.00 0.00 0.00 0.00 0.00 0.00 0.00 0.00 0.00 0.00 0.00 0.00 0.00 0.00 0.00 0.00 0.00 0.00 0.00 0.00 0.00 0.00 0.00 0.00 0.00 0.00 0.00 0.00 0.00 0.00 0.00 0.00 0.00 0.00 0.00 0.00 0.00 0.00 0.00 0.00 0.00 0.00 0.00 0.00 0.00 0.00 0.00 0.00 0.00 0.01 0.00 0.00 0.00 0.01 0.02 0.04 0.08 0.15 0.10 0.28 0.26 0.23
0.01 0.01 0.01 0.01 0.01 0.01 0.01 0.01 0.01 0.01 0.01 0.01 0.00 0.00 0.00 0.01 0.01 0.01 0.01 0.01 0.02 0.00 0.01 0.02 0.00 0.00 0.00 0.00 0.00 0.00 0.00 0.00 0.00 0.00 0.00 0.00 0.00 0.00 0.00 0.00 0.00 0.00 0.00 0.00 0.00 0.00 0.00 0.00 0.00 0.00 0.00 0.00 0.00 0.00 0.00 0.00 0.00 0.00 0.00 0.00 0.00 0.00 0.00 0.00 0.00 0.00 0.00 0.00 0.00 0.00 0.00 0.00 0.00 0.00 0.00 0.00 0.01 0.00 0.00 0.01 0.03 0.04 0.11 0.15 0.21 0.27 0.15 0.27
0.01 0.01 0.00 0.01 0.01 0.01 0.01 0.01 0.01 0.01 0.01 0.01 0.01 0.01 0.01 0.01 0.01 0.02 0.01 0.01 0.01 0.00 0.01 0.00 0.00 0.00 0.00 0.00 0.00 0.00 0.00 0.00 0.00 0.00 0.00 0.00 0.00 0.00 0.00 0.00 0.00 0.00 0.00 0.00 0.00 0.00 0.00 0.00 0.00 0.00 0.00 0.00 0.00 0.00 0.00 0.00 0.00 0.00 0.00 0.00 0.00 0.00 0.00 0.00 0.00 0.00 0.00 0.00 0.00 0.00 0.00 0.00 0.00 0.00 0.00 0.01 0.01 0.01 0.00 0.01 0.01 0.02 0.07 0.39 0.26 0.15 0.17 0.18
0.01 0.01 0.01 0.01 0.01 0.00 0.00 0.01 0.01 0.01 0.01 0.01 0.01 0.01 0.01 0.00 0.00 0.01 0.01 0.02 0.02 0.00 0.00 0.00 0.00 0.00 0.00 0.00 0.00 0.00 0.00 0.00 0.00 0.00 0.00 0.00 0.00 0.00 0.00 0.00 0.00 0.00 0.00 0.00 0.00 0.00 0.00 0.00 0.00 0.00 0.00 0.00 0.00 0.00 0.00 0.00 0.00 0.00 0.00 0.00 0.00 0.00 0.00 0.00 0.00 0.00 0.00 0.00 0.00 0.00 0.00 0.00 0.00 0.00 0.00 0.01 0.01 0.01 0.01 0.01 0.01 0.02 0.03 0.22 0.18 0.20 0.22 0.16
0.01 0.01 0.01 0.00 0.00 0.01 0.01 0.01 0.01 0.01 0.01 0.01 0.01 0.00 0.01 0.00 0.00 0.01 0.00 0.00 0.00 0.00 0.00 0.00 0.00 0.00 0.00 0.00 0.00 0.00 0.00 0.00 0.00 0.00 0.00 0.00 0.00 0.00 0.00 0.00 0.00 0.00 0.00 0.00 0.00 0.00 0.00 0.00 0.00 0.00 0.00 0.00 0.00 0.00 0.00 0.00 0.00 0.00 0.00 0.00 0.00 0.00 0.00 0.00 0.00 0.00 0.00 0.00 0.00 0.00 0.00 0.00 0.00 0.00 0.00 0.00 0.01 0.01 0.01 0.01 0.01 0.01 0.05 0.19 0.10 0.20 0.19 0.17
0.00 0.01 0.00 0.00 0.00 0.01 0.01 0.01 0.00 0.01 0.01 0.00 0.00 0.01 0.00 0.00 0.01 0.01 0.00 0.00 0.00 0.00 0.00 0.00 0.00 0.00 0.02 0.00 0.00 0.00 0.00 0.00 0.00 0.00 0.00 0.00 0.00 0.00 0.00 0.00 0.00 0.00 0.00 0.00 0.00 0.00 0.00 0.00 0.00 0.00 0.00 0.00 0.00 0.00 0.00 0.00 0.00 0.00 0.01 0.00 0.00 0.00 0.00 0.00 0.00 0.00 0.00 0.00 0.00 0.00 0.00 0.00 0.00 0.00 0.00 0.01 0.01 0.01 0.00 0.00 0.01 0.01 0.04 0.05 0.07 0.19 0.23 0.19
0.01 0.01 0.00 0.00 0.00 0.00 0.01 0.01 0.01 0.00 0.00 0.00 0.00 0.00 0.00 0.00 0.00 0.00 0.00 0.00 0.00 0.00 0.00 0.00 0.00 0.00 0.00 0.00 0.00 0.00 0.00 0.00 0.00 0.00 0.00 0.00 0.00 0.00 0.00 0.00 0.00 0.00 0.00 0.00 0.00 0.00 0.00 0.00 0.00 0.00 0.00 0.00 0.00 0.00 0.00 0.00 0.00 0.00 0.00 0.00 0.00 0.00 0.00 0.00 0.00 0.00 0.00 0.00 0.00 0.00 0.00 0.00 0.00 0.00 0.00 0.00 0.01 0.01 0.00 0.01 0.01 0.02 0.03 0.05 0.12 0.11 0.13 0.12
0.01 0.01 0.00 0.00 0.00 0.01 0.00 0.01 0.01 0.00 0.01 0.01 0.00 0.00 0.00 0.00 0.00 0.01 0.00 0.00 0.00 0.00 0.00 0.00 0.00 0.00 0.00 0.00 0.00 0.00 0.00 0.00 0.00 0.00 0.00 0.00 0.00 0.00 0.00 0.00 0.00 0.00 0.00 0.00 0.00 0.00 0.00 0.00 0.00 0.00 0.00 0.00 0.00 0.00 0.00 0.00 0.00 0.00 0.00 0.00 0.00 0.00 0.00 0.00 0.00 0.00 0.00 0.00 0.00 0.00 0.00 0.00 0.00 0.00 0.00 0.00 0.00 0.01 0.00 0.01 0.01 0.01 0.02 0.02 0.02 0.11 0.08 0.12
0.01 0.01 0.00 0.01 0.00 0.00 0.01 0.01 0.00 0.00 0.01 0.01 0.00 0.00 0.00 0.00 0.00 0.00 0.00 0.00 0.00 0.00 0.00 0.00 0.00 0.00 0.00 0.00 0.00 0.00 0.00 0.00 0.00 0.00 0.00 0.00 0.00 0.00 0.00 0.00 0.00 0.00 0.00 0.00 0.00 0.00 0.00 0.00 0.00 0.00 0.00 0.00 0.00 0.00 0.00 0.00 0.00 0.00 0.00 0.00 0.00 0.00 0.00 0.00 0.00 0.00 0.00 0.00 0.00 0.00 0.00 0.00 0.00 0.00 0.00 0.00 0.00 0.00 0.01 0.00 0.00 0.00 0.01 0.02 0.05 0.16 0.31 0.11
0.01 0.00 0.00 0.00 0.00 0.01 0.00 0.00 0.00 0.00 0.00 0.00 0.00 0.00 0.00 0.00 0.00 0.00 0.00 0.00 0.00 0.00 0.00 0.00 0.00 0.00 0.00 0.00 0.00 0.00 0.00 0.00 0.00 0.00 0.00 0.00 0.00 0.00 0.00 0.00 0.00 0.00 0.00 0.00 0.00 0.00 0.00 0.00 0.00 0.00 0.00 0.00 0.00 0.00 0.00 0.00 0.00 0.00 0.00 0.00 0.00 0.00 0.00 0.02 0.00 0.00 0.00 0.00 0.00 0.00 0.00 0.00 0.00 0.00 0.00 0.01 0.01 0.00 0.00 0.01 0.00 0.00 0.01 0.01 0.05 0.13 0.05 0.05
0.00 0.00 0.00 0.00 0.01 0.00 0.00 0.00 0.00 0.00 0.00 0.00 0.00 0.00 0.00 0.00 0.00 0.00 0.00 0.00 0.00 0.00 0.00 0.00 0.00 0.00 0.00 0.00 0.00 0.00 0.00 0.00 0.00 0.00 0.00 0.00 0.00 0.00 0.00 0.00 0.00 0.00 0.00 0.00 0.00 0.00 0.00 0.00 0.00 0.00 0.00 0.00 0.00 0.00 0.00 0.00 0.00 0.00 0.00 0.00 0.00 0.00 0.00 0.00 0.03 0.00 0.00 0.00 0.00 0.00 0.00 0.00 0.00 0.00 0.00 0.01 0.00 0.00 0.00 0.01 0.01 0.00 0.00 0.01 0.08 0.16 0.04 0.02
0.00 0.00 0.00 0.00 0.00 0.00 0.00 0.00 0.00 0.00 0.00 0.00 0.00 0.00 0.00 0.00 0.00 0.00 0.00 0.00 0.00 0.00 0.00 0.00 0.00 0.00 0.00 0.00 0.00 0.00 0.00 0.00 0.00 0.00 0.00 0.00 0.00 0.00 0.00 0.00 0.00 0.00 0.00 0.00 0.00 0.00 0.00 0.00 0.00 0.00 0.00 0.00 0.00 0.00 0.00 0.00 0.00 0.00 0.00 0.00 0.00 0.00 0.00 0.00 0.00 0.00 0.00 0.01 0.00 0.00 0.00 0.01 0.00 0.00 0.00 0.00 0.00 0.00 0.00 0.00 0.00 0.00 0.00 0.01 0.04 0.03 0.05 0.03
0.00 0.00 0.00 0.00 0.00 0.00 0.01 0.01 0.00 0.00 0.00 0.00 0.00 0.00 0.00 0.00 0.00 0.00 0.00 0.01 0.02 0.02 0.00 0.00 0.00 0.00 0.00 0.00 0.00 0.00 0.00 0.00 0.00 0.00 0.00 0.00 0.00 0.00 0.00 0.00 0.00 0.00 0.00 0.00 0.00 0.00 0.01 0.00 0.00 0.00 0.00 0.00 0.00 0.00 0.00 0.00 0.00 0.00 0.01 0.00 0.00 0.00 0.00 0.00 0.00 0.00 0.01 0.01 0.05 0.00 0.01 0.02 0.00 0.01 0.00 0.00 0.00 0.00 0.00 0.00 0.00 0.00 0.00 0.00 0.03 0.12 0.06 0.05
0.00 0.00 0.00 0.00 0.00 0.01 0.00 0.00 0.00 0.00 0.00 0.00 0.00 0.00 0.00 0.00 0.00 0.00 0.01 0.05 0.07 0.02 0.00 0.00 0.00 0.00 0.00 0.00 0.00 0.00 0.00 0.01 0.00 0.00 0.00 0.00 0.00 0.00 0.00 0.00 0.00 0.00 0.00 0.00 0.00 0.00 0.00 0.00 0.00 0.00 0.00 0.00 0.00 0.00 0.00 0.00 0.00 0.01 0.01 0.00 0.00 0.00 0.00 0.00 0.00 0.00 0.02 0.00 0.01 0.00 0.00 0.03 0.01 0.01 0.00 0.00 0.00 0.00 0.00 0.00 0.00 0.00 0.01 0.03 0.09 0.56 0.12 0.04
0.00 0.00 0.00 0.00 0.00 0.01 0.02 0.01 0.00 0.00 0.00 0.00 0.00 0.00 0.00 0.00 0.00 0.00 0.01 0.05 0.07 0.00 0.02 0.00 0.00 0.00 0.00 0.00 0.00 0.00 0.00 0.00 0.00 0.00 0.00 0.00 0.00 0.00 0.00 0.00 0.00 0.00 0.00 0.00 0.01 0.00 0.00 0.00 0.00 0.00 0.00 0.00 0.00 0.00 0.00 0.00 0.00 0.00 0.00 0.00 0.00 0.00 0.00 0.00 0.01 0.01 0.02 0.01 0.03 0.00 0.00 0.00 0.01 0.02 0.01 0.01 0.01 0.00 0.01 0.01 0.02 0.01 0.01 0.02 0.15 0.06 0.04 0.03
0.00 0.00 0.00 0.00 0.00 0.01 0.00 0.00 0.00 0.00 0.00 0.00 0.00 0.00 0.00 0.00 0.00 0.00 0.19 0.10 0.11 0.01 0.00 0.02 0.00 0.00 0.00 0.00 0.00 0.00 0.00 0.00 0.00 0.00 0.00 0.00 0.00 0.00 0.00 0.00 0.00 0.00 0.00 0.00 0.01 0.01 0.00 0.00 0.00 0.00 0.00 0.00 0.00 0.00 0.00 0.00 0.00 0.00 0.00 0.00 0.00 0.00 0.00 0.00 0.02 0.00 0.09 0.00 0.02 0.04 0.08 0.02 0.05 0.01 0.01 0.01 0.00 0.02 0.04 0.04 0.08 0.06 0.06 0.11 0.09 0.07 0.04 0.05
0.00 0.00 0.01 0.00 0.01 0.00 0.00 0.02 0.00 0.00 0.00 0.00 0.00 0.00 0.00 0.00 0.00 0.06 0.04 0.01 0.00 0.07 0.00 0.00 0.03 0.01 0.00 0.00 0.00 0.00 0.00 0.00 0.00 0.00 0.00 0.00 0.00 0.00 0.00 0.00 0.00 0.00 0.00 0.00 0.00 0.00 0.01 0.00 0.00 0.00 0.00 0.00 0.00 0.00 0.00 0.00 0.00 0.00 0.00 0.00 0.00 0.00 0.00 0.01 0.01 0.01 0.05 0.01 0.01 0.01 0.05 0.00 0.05 0.06 0.04 0.03 0.05 0.07 0.03 0.04 0.08 0.06 0.08 0.05 0.23 0.08 0.04 0.06
0.00 0.00 0.01 0.01 0.02 0.00 0.00 0.00 0.00 0.00 0.00 0.00 0.00 0.00 0.00 0.00 0.08 0.05 0.01 0.02 0.00 0.01 0.00 0.00 0.00 0.00 0.00 0.00 0.00 0.00 0.00 0.00 0.00 0.00 0.00 0.00 0.00 0.00 0.00 0.00 0.00 0.00 0.00 0.00 0.00 0.00 0.00 0.00 0.00 0.00 0.00 0.00 0.00 0.00 0.00 0.00 0.00 0.00 0.00 0.01 0.00 0.03 0.02 0.02 0.02 0.02 0.07 0.00 0.02 0.02 0.01 0.03 0.07 0.15 0.06 0.07 0.02 0.04 0.05 0.03 0.05 0.06 0.04 0.06 0.08 0.08 0.06 0.08
0.00 0.00 0.01 0.04 0.01 0.01 0.00 0.00 0.00 0.00 0.00 0.00 0.00 0.00 0.00 0.05 0.01 0.03 0.01 0.00 0.09 0.09 0.01 0.02 0.00 0.00 0.00 0.00 0.00 0.00 0.00 0.00 0.00 0.00 0.00 0.00 0.00 0.00 0.00 0.00 0.00 0.00 0.01 0.00 0.04 0.00 0.00 0.00 0.00 0.00 0.00 0.00 0.00 0.00 0.00 0.00 0.00 0.00 0.00 0.01 0.17 0.18 0.01 0.08 0.03 0.02 0.00 0.01 0.03 0.00 0.00 0.03 0.01 0.05 0.12 0.04 0.03 0.02 0.02 0.04 0.06 0.02 0.03 0.03 0.12 0.07 0.10 0.08
0.00 0.01 0.01 0.01 0.01 0.01 0.00 0.00 0.00 0.00 0.00 0.00 0.00 0.00 0.12 0.02 0.00 0.02 0.01 0.00 0.18 0.01 0.01 0.00 0.01 0.00 0.02 0.00 0.00 0.00 0.00 0.02 0.02 0.00 0.00 0.00 0.00 0.00 0.00 0.00 0.00 0.00 0.04 0.03 0.03 0.00 0.02 0.00 0.00 0.00 0.00 0.00 0.00 0.00 0.01 0.01 0.00 0.00 0.01 0.09 0.05 0.12 0.05 0.02 0.07 0.02 0.06 0.02 0.01 0.02 0.03 0.04 0.12 0.14 0.04 0.09 0.06 0.03 0.05 0.08 0.05 0.04 0.07 0.09 0.10 0.10 0.13 0.14
0.00 0.00 0.01 0.00 0.00 0.00 0.00 0.00 0.00 0.00 0.00 0.00 0.00 0.00 0.00 0.00 0.00 0.00 0.02 0.00 0.02 0.02 0.00 0.00 0.00 0.00 0.00 0.03 0.12 0.00 0.01 0.00 0.00 0.00 0.00 0.02 0.00 0.01 0.00 0.00 0.00 0.00 0.00 0.07 0.02 0.01 0.02 0.14 0.00 0.00 0.01 0.00 0.00 0.00 0.00 0.04 0.00 0.00 0.00 0.01 0.07 0.09 0.05 0.02 0.05 0.08 0.02 0.12 0.05 0.01 0.00 0.02 0.03 0.88 0.05 0.03 0.03 0.02 0.02 0.06 0.02 0.03 0.05 0.10 0.17 0.08 0.12 0.41
0.00 0.00 0.00 0.00 0.00 0.00 0.00 0.00 0.00 0.00 0.00 0.00 0.00 0.00 0.00 0.00 0.00 0.01 0.00 0.00 0.01 0.08 0.00 0.00 0.00 0.00 0.00 0.00 0.01 0.01 0.00 0.13 0.00 0.01 0.00 0.00 0.03 0.00 0.01 0.00 0.00 0.00 0.00 0.00 0.05 0.00 0.01 0.08 0.01 0.00 0.00 0.00 0.00 0.00 0.00 0.00 0.02 0.00 0.01 0.01 0.04 0.04 0.01 0.07 0.22 0.03 0.12 0.04 0.03 0.06 0.00 0.06 0.37 0.75 0.22 0.07 0.02 0.05 0.03 0.02 0.04 0.05 0.04 0.10 0.19 0.26 0.23 0.38
0.00 0.00 0.00 0.00 0.00 0.00 0.00 0.00 0.00 0.00 0.00 0.00 0.00 0.00 0.00 0.00 0.01 0.00 0.00 0.01 0.02 0.01 0.00 0.00 0.00 0.01 0.00 0.01 0.00 0.02 0.04 0.04 0.13 0.02 0.06 0.00 0.00 0.03 0.00 0.00 0.00 0.00 0.03 0.00 0.09 0.05 0.00 0.10 0.01 0.01 0.00 0.00 0.00 0.00 0.00 0.00 0.23 0.07 0.00 0.05 0.01 0.01 0.01 0.01 0.00 0.00 0.00 0.00 0.02 0.01 0.03 0.02 0.04 0.07 0.20 0.40 0.14 0.09 0.05 0.04 0.06 0.07 0.06 0.18 0.28 0.23 0.35 0.47
0.00 0.00 0.00 0.00 0.00 0.00 0.00 0.00 0.00 0.00 0.00 0.00 0.00 0.00 0.00 0.00 0.00 0.00 0.00 0.01 0.01 0.00 0.00 0.03 0.01 0.00 0.02 0.02 0.06 0.00 0.09 0.00 0.10 0.02 0.21 0.01 0.06 0.00 0.00 0.00 0.00 0.00 0.00 0.00 0.04 0.00 0.11 0.21 0.01 0.01 0.00 0.00 0.00 0.00 0.00 0.00 0.00 0.00 0.03 0.04 0.00 0.00 0.03 0.01 0.09 0.07 0.00 0.00 0.04 0.01 0.01 0.12 0.16 0.33 0.13 0.17 0.18 0.17 0.16 0.09 0.06 0.14 0.21 0.29 0.48 0.77 0.89 1.00
0.01 0.01 0.04 0.02 0.00 0.00 0.00 0.00 0.00 0.00 0.00 0.00 0.00 0.00 0.00 0.00 0.01 0.00 0.00 0.00 0.00 0.00 0.01 0.01 0.15 0.00 0.01 0.02 0.06 0.02 0.05 0.02 0.25 0.03 0.17 0.05 0.28 0.00 0.02 0.01 0.00 0.00 0.00 0.00 0.01 0.03 0.00 0.12 0.03 0.00 0.00 0.01 0.00 0.00 0.00 0.00 0.00 0.00 0.06 0.02 0.01 0.08 0.05 0.02 0.00 0.03 0.03 0.03 0.04 0.01 0.09 0.09 0.14 0.51 0.13 0.19 0.14 0.31 0.37 0.26 0.26 0.21 0.38 0.77 0.56 0.77 1.11 1.57
0.01 0.01 0.15 0.01 0.00 0.00 0.00 0.00 0.00 0.01 0.01 0.00 0.00 0.00 0.00 0.00 0.01 0.02 0.00 0.00 0.00 0.00 0.00 0.00 0.04 0.00 0.00 0.02 0.05 0.04 0.05 0.13 0.08 0.17 0.09 0.27 0.19 0.09 0.11 0.01 0.03 0.00 0.00 0.00 0.00 0.01 0.00 0.05 0.07 0.00 0.00 0.02 0.00 0.00 0.01 0.01 0.00 0.00 0.00 0.00 0.00 0.00 0.13 0.05 0.01 0.03 0.01 0.15 0.01 0.03 0.05 0.16 0.25 0.43 0.16 0.14 0.15 0.22 0.18 0.23 0.38 0.69 0.63 0.92 1.04 1.08 1.16 1.12
0.00 0.06 0.27 0.00 0.00 0.00 0.00 0.00 0.00 0.01 0.01 0.00 0.02 0.00 0.00 0.01 0.02 0.01 0.00 0.00 0.01 0.00 0.00 0.00 0.00 0.03 0.00 0.00 0.00 0.12 0.06 0.09 0.05 0.22 0.05 0.45 0.10 0.08 0.09 0.01 0.07 0.00 0.00 0.00 0.01 0.00 0.05 0.00 0.11 0.08 0.00 0.00 0.04 0.00 0.02 0.00 0.04 0.00 0.00 0.00 0.00 0.01 0.04 0.00 0.06 0.02 0.07 0.08 0.16 0.12 0.13 0.42 0.25 0.04 0.13 0.20 0.13 0.28 0.27 0.23 0.25 0.51 0.84 0.53 0.84 1.16 1.22 1.12
0.02 0.25 0.40 0.00 0.00 0.00 0.00 0.01 0.01 0.01 0.00 0.00 0.00 0.00 0.00 0.03 0.01 0.00 0.00 0.00 0.00 0.00 0.00 0.00 0.01 0.00 0.01 0.01 0.01 0.00 0.04 0.02 0.07 0.14 0.04 0.30 0.14 0.35 0.00 0.02 0.01 0.20 0.00 0.01 0.01 0.00 0.01 0.00 0.00 0.12 0.04 0.02 0.01 0.00 0.00 0.00 0.02 0.01 0.00 0.03 0.01 0.05 0.11 0.09 0.05 0.00 0.07 0.04 0.11 0.10 0.18 0.30 0.54 0.15 0.12 0.45 0.60 0.35 0.54 0.36 0.39 0.74 0.25 0.50 0.59 0.85 0.54 0.69
0.11 0.35 0.39 0.01 0.01 0.00 0.02 0.15 0.04 0.03 0.04 0.03 0.02 0.00 0.01 0.00 0.00 0.00 0.00 0.00 0.00 0.01 0.00 0.00 0.00 0.00 0.00 0.00 0.00 0.00 0.00 0.02 0.14 0.06 0.18 0.35 0.29 0.08 0.07 0.00 0.01 0.00 0.07 0.06 0.15 0.11 0.02 0.05 0.06 0.05 0.17 0.36 0.08 0.04 0.01 0.00 0.01 0.01 0.00 0.02 0.01 0.02 0.01 0.11 0.08 0.19 0.05 0.08 0.03 0.15 0.11 0.42 0.21 0.18 0.16 0.13 0.41 0.35 0.53 0.56 0.66 0.73 0.71 0.94 1.19 1.34 0.83 0.58
0.12 0.48 0.19 0.02 0.02 0.00 0.08 0.21 0.02 0.05 0.13 0.05 0.02 0.00 0.00 0.01 0.01 0.01 0.01 0.02 0.01 0.00 0.00 0.00 0.00 0.00 0.00 0.00 0.01 0.00 0.01 0.05 0.05 0.20 0.10 0.14 0.30 0.09 0.05 0.01 0.00 0.02 0.01 0.06 0.04 0.05 0.00 0.00 0.03 0.04 0.06 0.08 0.01 0.00 0.00 0.00 0.00 0.00 0.00 0.00 0.01 0.07 0.05 0.05 0.12 0.21 0.14 0.16 0.10 0.12 0.06 0.59 0.27 0.31 0.22 0.46 0.87 0.61 0.39 0.56 0.75 0.51 0.64 0.74 0.90 0.58 0.91 0.36
0.47 0.94 0.26 0.03 0.00 0.04 0.15 0.20 0.11 0.04 0.09 0.02 0.01 0.05 0.01 0.02 0.00 0.01 0.00 0.01 0.00 0.01 0.00 0.00 0.00 0.00 0.02 0.00 0.00 0.00 0.02 0.02 0.00 0.02 0.14 0.07 0.23 0.03 0.07 0.06 0.05 0.20 0.05 0.40 0.12 0.09 0.13 0.03 0.02 0.16 0.15 0.23 0.20 0.08 0.02 0.01 0.00 0.00 0.05 0.03 0.01 0.07 0.03 0.09 0.03 0.06 0.02 0.05 0.18 0.10 0.21 0.68 0.73 0.18 0.11 0.38 0.17 0.28 1.56 1.23 1.29 0.65 0.28 0.83 0.83 1.09 1.10 0.67
0.92 0.41 0.40 0.29 0.04 0.26 0.42 0.23 0.23 0.06 0.17 0.09 0.17 0.11 0.11 0.02 0.00 0.01 0.04 0.06 0.01 0.01 0.00 0.01 0.00 0.06 0.00 0.00 0.00 0.00 0.00 0.01 0.11 0.01 0.05 0.07 0.31 0.01 0.04 0.01 0.08 0.27 0.08 0.08 0.00 0.05 0.12 0.34 0.06 0.11 0.34 0.40 0.36 0.44 0.52 0.21 0.12 0.04 0.01 0.03 0.03 0.01 0.12 0.14 0.05 0.05 0.04 0.01 0.03 0.09 0.15 0.22 0.27 0.18 0.27 0.28 0.33 0.40 0.43 0.46 0.48 0.72 0.95 0.28 0.45 0.52 0.36 0.73
0.86 0.36 0.24 0.79 0.64 0.64 0.13 0.31 0.11 0.15 0.12 0.15 0.04 0.05 0.04 0.16 0.05 0.00 0.00 0.02 0.00 0.01 0.00 0.02 0.00 0.00 0.00 0.00 0.00 0.00 0.00 0.00 0.02 0.08 0.04 0.15 0.11 0.02 0.07 0.05 0.01 0.11 0.03 0.00 0.04 0.03 0.31 0.13 0.34 0.12 0.25 0.58 0.50 0.31 0.15 0.01 0.10 0.10 0.17 0.03 0.12 0.01 0.04 0.04 0.10 0.14 0.10 0.21 0.14 0.24 0.16 0.21 0.25 0.23 0.17 0.11 0.31 0.31 0.73 0.34 0.44 0.49 0.39 0.76 0.61 0.89 0.57 0.70
0.77 0.34 0.10 0.15 0.14 0.45 0.60 0.18 0.08 0.11 0.11 0.07 0.05 0.03 0.13 0.02 0.09 0.02 0.00 0.10 0.00 0.01 0.00 0.00 0.01 0.00 0.01 0.00 0.01 0.01 0.01 0.00 0.00 0.02 0.02 0.08 0.12 0.11 0.02 0.07 0.06 0.01 0.01 0.05 0.06 0.08 0.22 0.20 0.17 0.15 0.16 0.21 0.13 0.15 0.22 0.04 0.16 0.14 0.20 0.23 0.14 0.09 0.10 0.17 0.03 0.09 0.22 0.08 0.26 0.63 0.29 0.16 0.19 0.17 0.13 0.13 0.11 0.10 0.31 0.21 0.13 0.18 0.43 0.38 0.53 0.62 0.59 0.26
0.54 0.43 0.09 0.06 0.27 0.38 0.38 0.46 0.24 0.34 0.24 0.06 0.17 0.04 0.08 0.09 0.16 0.16 0.06 0.01 0.01 0.01 0.02 0.00 0.00 0.01 0.00 0.00 0.01 0.01 0.02 0.01 0.02 0.03 0.05 0.03 0.06 0.13 0.09 0.03 0.15 0.09 0.07 0.10 0.06 0.09 0.33 0.32 0.35 0.22 0.40 0.21 0.35 0.26 0.10 0.09 0.07 0.09 0.13 0.14 0.22 0.19 0.16 0.19 0.11 0.08 0.24 0.05 0.33 0.39 0.26 0.15 0.15 0.14 0.10 0.12 0.06 0.12 0.20 0.25 0.21 0.24 0.15 0.07 0.10 0.17 0.29 0.19
0.93 0.15 0.25 0.03 0.19 0.29 0.26 0.45 0.37 0.40 0.36 0.10 0.13 0.12 0.13 0.09 0.13 0.06 0.05 0.18 0.01 0.10 0.01 0.01 0.00 0.01 0.00 0.01 0.01 0.04 0.05 0.04 0.00 0.06 0.10 0.20 0.18 0.26 0.28 0.26 0.03 0.08 0.05 0.05 0.13 0.07 0.08 0.25 0.43 0.29 0.32 0.33 0.23 0.15 0.19 0.10 0.09 0.14 0.07 0.10 0.18 0.12 0.11 0.12 0.10 0.04 0.09 0.20 0.15 0.26 0.04 0.09 0.16 0.20 0.09 0.08 0.05 0.14 0.24 0.20 0.20 0.11 0.08 0.26 0.08 0.09 0.08 0.23
0.44 0.37 0.25 0.07 0.08 0.03 0.12 0.16 0.38 0.52 0.40 0.14 0.04 0.11 0.15 0.08 0.19 0.04 0.04 0.09 0.13 0.04 0.00 0.06 0.13 0.10 0.02 0.01 0.01 0.10 0.07 0.12 0.11 0.03 0.08 0.01 0.08 0.32 0.56 0.50 0.56 0.07 0.02 0.10 0.05 0.27 0.13 0.20 0.06 0.38 0.49 0.33 0.51 0.29 0.20 0.21 0.20 0.23 0.07 0.04 0.04 0.08 0.30 0.12 0.31 0.38 0.12 0.16 0.39 0.41 0.11 0.10 0.23 0.14 0.11 0.09 0.06 0.11 0.60 0.48 0.39 0.20 0.08 0.23 0.17 0.04 0.04 0.06
0.48 0.24 0.09 0.34 0.18 0.06 0.15 0.06 0.12 0.17 0.40 0.41 0.33 0.21 0.08 0.02 0.07 0.02 0.08 0.01 0.02 0.04 0.00 0.03 0.02 0.09 0.09 0.07 0.01 0.06 0.01 0.04 0.01 0.02 0.02 0.02 0.08 0.09 0.06 0.26 0.02 0.61 0.53 0.62 0.53 0.82 0.12 0.38 0.15 0.24 0.42 0.47 0.22 0.55 0.57 0.65 0.56 0.35 0.21 0.31 0.18 0.22 0.17 0.07 0.07 0.15 0.26 0.42 0.48 0.41 0.24 0.16 0.36 0.26 0.35 0.11 0.05 0.05 0.09 0.18 0.19 0.05 0.05 0.08 0.05 0.13 0.07 0.33
0.38 0.04 0.05 0.12 0.05 0.04 0.04 0.01 0.01 0.05 0.13 0.19 0.29 0.33 0.26 0.18 0.04 0.14 0.12 0.01 0.05 0.01 0.03 0.00 0.03 0.10 0.09 0.03 0.07 0.04 0.02 0.00 0.01 0.02 0.00 0.01 0.01 0.07 0.00 0.02 0.02 0.11 0.15 0.13 0.51 0.41 0.41 0.30 0.28 0.56 0.35 0.44 0.48 0.50 0.36 0.35 0.39 0.44 0.36 0.34 0.23 0.26 0.09 0.22 0.13 0.14 0.24 0.42 0.42 0.55 0.39 0.26 0.19 0.14 0.08 0.17 0.05 0.08 0.18 0.05 0.09 0.07 0.06 0.06 0.07 0.07 0.09 0.08